Location: Unspecified
(43.3830°N, 0.0000°E)
Time: 01:21:10
(UTC+00:00)

Vanguard 3 - All Passes

Search period start: 18 June 2019 00:00
Search period end: 28 June 2019 00:00
Orbit: 508 x 3263 km, 33.3° (Epoch: 17 June)

Date Brightness Start Highest point End Pass type
(mag) Time Alt. Az. Time Alt. Az. Time Alt. Az.
18 Jun - 10:29:45 10° S 10:36:03 16° SSE 10:40:55 10° SE daylight
18 Jun - 12:40:42 10° SW 12:48:28 28° S 12:53:31 10° ESE daylight
18 Jun - 14:54:18 10° WSW 14:59:54 29° S 15:03:46 10° SE daylight
18 Jun - 17:08:33 10° SW 17:10:27 13° SSW 17:12:12 10° S daylight
19 Jun - 09:18:13 10° SSE 09:21:22 11° SSE 09:24:12 10° SE daylight
19 Jun - 11:25:29 10° SSW 11:34:18 25° SSE 11:40:12 10° ESE daylight
19 Jun - 13:38:52 10° WSW 13:46:20 33° S 13:51:05 10° ESE daylight
19 Jun - 15:53:01 10° WSW 15:57:18 22° SSW 16:00:34 10° SSE daylight
20 Jun - 10:10:45 10° SSW 10:19:47 21° SSE 10:26:14 10° ESE daylight
20 Jun - 12:23:09 10° SW 12:32:25 33° S 12:38:09 10° ESE daylight
20 Jun - 14:37:33 10° WSW 14:43:59 31° S 14:48:13 10° SE daylight
20 Jun - 16:52:42 10° SW 16:54:26 12° SSW 16:56:01 10° S daylight
21 Jun - 08:57:18 10° S 09:04:56 16° SSE 09:11:01 10° ESE daylight
21 Jun - 11:07:25 10° SW 11:18:06 31° SSE 11:24:54 10° ESE daylight
21 Jun - 13:21:42 10° WSW 13:30:19 37° S 13:35:35 10° ESE daylight
21 Jun - 15:36:32 10° WSW 15:41:20 22° SSW 15:44:51 10° SSE daylight
22 Jun - 09:52:06 10° SSW 10:03:24 26° SSE 10:11:06 10° ESE daylight
22 Jun - 12:05:34 10° SW 12:16:16 38° S 12:22:41 10° ESE daylight
22 Jun - 14:20:40 10° WSW 14:27:59 33° SSW 14:32:39 10° SE daylight
22 Jun - 16:36:46 10° SW 16:38:22 11° SW 16:39:49 10° SSW daylight
23 Jun - 08:37:48 10° S 08:48:23 20° SSE 08:56:22 10° ESE daylight
23 Jun - 10:49:24 10° SW 11:01:48 36° SSE 11:09:26 10° ESE daylight
23 Jun - 13:04:27 10° WSW 13:14:14 41° S 13:20:03 10° ESE daylight
23 Jun - 15:19:56 10° WSW 15:25:18 23° SSW 15:29:07 10° SSE daylight
24 Jun - 07:25:43 10° S 07:33:09 14° SE 07:39:32 10° ESE daylight
24 Jun - 09:33:39 10° SSW 09:46:54 31° SSE 09:55:42 10° ESE daylight
24 Jun - 11:47:56 10° WSW 12:00:03 43° S 12:07:07 10° ESE daylight
24 Jun - 14:03:40 10° WSW 14:11:55 35° SSW 14:17:01 10° SE daylight
24 Jun - 16:20:47 10° SW 16:22:13 11° SW 16:23:33 10° SSW daylight
25 Jun - 08:18:49 10° SSW 08:31:40 25° SSE 08:41:09 10° ESE daylight
25 Jun - 10:31:26 10° SW 10:45:22 41° SSE 10:53:51 10° ESE daylight
25 Jun - 12:47:07 10° WSW 12:58:04 44° S 13:04:26 10° ESE daylight
25 Jun - 15:03:12 10° WSW 15:09:11 23° SSW 15:13:21 10° SSE daylight
26 Jun - 07:05:40 10° S 07:16:18 18° SE 07:25:07 10° ESE daylight
26 Jun - 09:15:21 10° SW 09:30:15 36° SSE 09:40:07 10° E daylight
26 Jun - 11:30:17 10° WSW 11:43:42 47° S 11:51:30 10° ESE daylight
26 Jun - 13:46:34 10° W 13:55:46 36° SSW 14:01:22 10° SE daylight
26 Jun - 16:04:47 10° SW 16:06:00 11° SW 16:07:08 10° SSW daylight
27 Jun - 05:57:27 10° SSE 06:00:56 11° SE 06:04:15 10° SE daylight
27 Jun - 08:00:09 10° SSW 08:14:49 30° SSE 08:25:38 10° E daylight
27 Jun - 10:13:30 10° SW 10:28:50 46° S 10:38:11 10° E daylight
27 Jun - 12:29:42 10° WSW 12:41:48 46° S 12:48:47 10° ESE daylight
27 Jun - 14:46:22 10° W 14:52:59 23° SSW 14:57:30 10° SSE daylight
